EA3CD Weather Reports


time (UTC)temp
F
wind
direction
speed
knots
gust
knots
rain 1hr
in
rain 24hr
in
rain mn
in
humidity
%
barometer
mb
20260507105703 69 109 8.7 8.7 0.00 0.00 0.00 87 1010.5
20260507105104 70 96 5.2 8.7 0.00 0.00 0.00 87 1010.5
20260507104504 69 90 8.7 8.7 0.00 0.00 0.00 88 1010.5
20260507103904 69 112 8.7 8.7 0.00 0.00 0.00 88 1010.5
20260507103604 69 125 8.7 8.7 0.00 0.00 0.00 88 1010.5
20260507103303 69 135 8.7 8.7 0.00 0.00 0.00 86 1010.5
20260507103004 70 131 7.0 7.8 0.00 0.00 0.00 87 1010.5
20260507102704 69 135 7.0 7.8 0.00 0.00 0.00 86 1010.5
20260507102403 69 141 7.8 7.8 0.00 0.00 0.00 86 1010.5
20260507102104 69 152 7.0 7.0 0.00 0.00 0.00 87 1010.5
20260507101804 68 158 5.2 5.2 0.00 0.00 0.00 87 1010.5
20260507101504 69 145 5.2 5.2 0.00 0.00 0.00 88 1010.5
20260507101204 69 131 5.2 5.2 0.00 0.00 0.00 88 1010.5
20260507100604 68 105 3.5 7.8 0.00 0.00 0.00 89 1010.5
20260507100303 69 100 3.5 7.8 0.00 0.00 0.00 87 1010.5
20260507100005 69 94 5.2 9.6 0.00 0.00 0.00 87 1010.5
20260507095404 69 79 5.2 9.6 0.00 0.00 0.00 86 1010.5
20260507094504 69 121 7.8 9.6 0.00 0.00 0.00 87 1010.5
20260507094203 69 123 7.0 8.7 0.00 0.00 0.00 86 1010.5
20260507093604 68 118 8.7 8.7 0.00 0.00 0.00 87 1010.5
20260507093004 68 95 7.8 9.6 0.00 0.00 0.00 86 1010.5
20260507092703 68 120 3.5 11.3 0.00 0.00 0.00 86 1010.5
20260507092403 68 106 9.6 11.3 0.00 0.00 0.00 86 1010.5
20260507092104 68 106 3.5 11.3 0.00 0.00 0.00 87 1010.5
20260507091804 68 90 7.0 11.3 0.00 0.00 0.00 87 1010.5
20260507091504 67 90 7.0 13.9 0.00 0.00 0.00 89 1010.5
20260507091203 68 90 4.3 13.9 0.00 0.00 0.00 89 1010.5
20260507090604 68 87 13.9 13.9 0.00 0.00 0.00 88 1010.5
20260507090304 69 100 9.6 10.4 0.00 0.00 0.00 89 1010.5
20260507090005 68 111 10.4 10.4 0.00 0.00 0.00 89 1010.5
20260507085404 68 92 8.7 9.6 0.00 0.00 0.00 89 1010.5
20260507085105 68 81 9.6 9.6 0.00 0.00 0.00 89 1010.5
20260507084804 69 78 3.5 9.6 0.00 0.00 0.00 89 1009.5
20260507084504 68 66 9.6 9.6 0.00 0.00 0.00 89 1009.5
20260507084204 68 60 9.6 9.6 0.00 0.00 0.00 89 1009.5
20260507083904 69 45 5.2 5.2 0.00 0.00 0.00 89 1009.5
20260507083604 69 51 5.2 6.1 0.00 0.00 0.00 89 1009.5
20260507083304 68 83 5.2 6.1 0.00 0.00 0.00 88 1010.5
20260507083004 68 116 5.2 6.1 0.00 0.00 0.00 89 1010.5
20260507082704 68 140 6.1 6.1 0.00 0.00 0.00 90 1010.5
20260507082404 68 135 5.2 5.2 0.00 0.00 0.00 90 1010.5
20260507082104 68 135 4.3 5.2 0.00 0.00 0.00 90 1010.5
20260507081804 68 135 4.3 5.2 0.00 0.00 0.00 89 1009.5
20260507081504 68 135 4.3 5.2 0.00 0.00 0.00 89 1009.5
20260507081204 68 130 5.2 5.2 0.00 0.00 0.00 88 1009.5
20260507080904 68 111 5.2 5.2 0.00 0.00 0.00 89 1009.5
20260507080603 69 95 5.2 5.2 0.00 0.00 0.00 90 1009.5
20260507080303 68 83 4.3 5.2 0.00 0.00 0.00 90 1010.5
20260507080004 68 85 4.3 5.2 0.00 0.00 0.00 90 1010.5
20260507075703 68 86 5.2 5.2 0.00 0.00 0.00 90 1010.5
20260507075404 68 85 5.2 5.2 0.00 0.00 0.00 90 1010.5
20260507075104 68 82 2.6 5.2 0.00 0.00 0.00 90 1010.5
20260507074804 68 71 2.6 5.2 0.00 0.00 0.00 90 1010.5
20260507073904 67 52 5.2 7.0 0.00 0.00 0.00 92 1010.5
20260507073604 66 85 7.0 7.0 0.00 0.00 0.00 91 1010.5
20260507073303 67 96 1.7 3.5 0.00 0.00 0.00 91 1010.5
20260507073003 67 82 1.7 3.5 0.00 0.00 0.00 91 1010.5
20260507072704 67 75 3.5 7.0 0.00 0.00 0.00 91 1010.5
20260507072403 67 70 1.7 7.0 0.00 0.00 0.00 91 1010.5
20260507072103 67 72 2.6 7.0 0.00 0.00 0.00 91 1010.5
20260507071804 67 75 7.0 7.0 0.00 0.00 0.00 91 1010.5
20260507071203 67 55 4.3 4.3 0.00 0.00 0.00 92 1010.5
20260507070604 67 21 2.6 3.5 0.00 0.00 0.00 93 1010.5
20260507070304 66 37 3.5 5.2 0.00 0.00 0.00 93 1010.5
20260507070008 66 46 2.6 5.2 0.00 0.00 0.00 94 1010.5
20260507065703 66 56 3.5 5.2 0.00 0.00 0.00 94 1010.5
20260507065404 65 50 5.2 5.2 0.00 0.00 0.00 95 1010.5
20260507065104 65 48 2.6 3.5 0.00 0.00 0.00 96 1010.5
20260507064803 65 45 2.6 3.5 0.00 0.00 0.00 96 1010.5
20260507064503 64 33 2.6 3.5 0.00 0.00 0.00 97 1010.5
20260507064204 64 26 3.5 3.5 0.00 0.00 0.00 97 1010.5
20260507063904 63 10 3.5 3.5 0.00 0.00 0.00 97 1010.5
20260507063604 63 12 1.7 2.6 0.00 0.00 0.00 98 1010.5
20260507063303 62 16 1.7 3.5 0.00 0.00 0.00 98 1009.5
20260507063003 62 13 1.7 3.5 0.00 0.00 0.00 98 1009.5
20260507062704 61 22 1.7 3.5 0.00 0.00 0.00 98 1009.5
20260507062404 60 27 2.6 3.5 0.00 0.00 0.00 98 1009.5
20260507062103 59 33 0.9 2.6 0.00 0.00 0.00 98 1009.5
20260507061504 59 32 2.6 2.6 0.00 0.00 0.00 98 1009.5
20260507061204 59 24 2.6 2.6 0.00 0.00 0.00 98 1009.5
20260507060904 59 37 2.6 2.6 0.00 0.00 0.00 98 1009.5
20260507060303 59 24 0.9 3.5 0.00 0.00 0.00 98 1009.5
20260507060004 58 30 2.6 3.5 0.00 0.00 0.00 98 1009.5
20260507055703 57 38 1.7 3.5 0.00 0.00 0.00 98 1009.5
20260507055103 56 49 3.5 3.5 0.00 0.00 0.00 98 1009.5
20260507054803 56 49 2.6 3.5 0.00 0.00 0.00 98 1009.5
20260507054204 56 38 1.7 2.6 0.00 0.00 0.00 98 1009.5
20260507053903 56 32 2.6 3.5 0.00 0.00 0.00 98 1009.5
20260507053303 56 23 1.7 3.5 0.00 0.00 0.00 98 1009.5
20260507052704 56 26 2.6 3.5 0.00 0.00 0.00 98 1009.5
20260507052404 56 33 2.6 3.5 0.00 0.00 0.00 98 1009.5
20260507052104 56 34 0.9 3.5 0.00 0.00 0.00 98 1009.5
20260507051804 56 38 3.5 3.5 0.00 0.00 0.00 98 1009.5
20260507051504 56 38 2.6 3.5 0.00 0.00 0.00 98 1009.5
20260507050904 56 71 0.9 1.7 0.00 0.00 0.00 98 1009.5
20260507050604 55 72 0.9 1.7 0.00 0.00 0.00 98 1009.5
20260507050304 55 90 0.0 1.7 0.00 0.00 0.00 98 1008.5
20260507050003 54 90 1.7 1.7 0.00 0.00 0.00 98 1008.5
20260507045704 54 337 0.0 1.7 0.00 0.00 0.00 98 1008.5
20260507045403 54 341 0.0 1.7 0.00 0.00 0.00 98 1008.5
20260507045104 54 343 0.0 1.7 0.00 0.00 0.00 98 1008.5
20260507044803 54 346 1.7 1.7 0.00 0.00 0.00 98 1008.5
20260507044503 54 350 1.7 1.7 0.00 0.00 0.00 98 1008.5
20260507043904 54 350 0.9 1.7 0.00 0.00 0.00 98 1008.5
20260507043603 54 346 1.7 1.7 0.00 0.00 0.00 98 1008.5
20260507043304 54 337 0.0 0.9 0.00 0.00 0.00 98 1009.5
20260507042404 54 340 0.0 1.7 0.00 0.00 0.00 98 1009.5
20260507042103 54 340 1.7 1.7 0.00 0.00 0.00 98 1009.5
20260507041804 54 350 1.7 1.7 0.00 0.00 0.00 98 1008.5
20260507041503 54 1 0.0 0.9 0.00 0.00 0.00 98 1008.5
20260507041204 55 1 0.9 1.7 0.00 0.00 0.00 98 1008.5
20260507040903 55 1 0.9 1.7 0.00 0.00 0.00 98 1008.5
20260507040604 55 3 0.9 1.7 0.00 0.00 0.00 98 1008.5
20260507040303 55 11 1.7 1.7 0.00 0.00 0.00 98 1009.5
20260507040004 55 13 0.9 1.7 0.00 0.00 0.00 98 1009.5
20260507035704 55 7 0.9 1.7 0.00 0.00 0.00 98 1009.5
20260507035403 55 357 1.7 1.7 0.00 0.00 0.00 98 1009.5
20260507035104 55 346 0.0 2.6 0.00 0.00 0.00 98 1009.5
20260507034804 55 349 1.7 2.6 0.00 0.00 0.00 98 1009.5
20260507034203 55 348 2.6 2.6 0.00 0.00 0.00 98 1009.5
20260507033903 54 352 1.7 2.6 0.00 0.00 0.00 98 1009.5
20260507033304 54 348 1.7 2.6 0.00 0.00 0.00 98 1008.5
20260507033003 54 342 1.7 1.7 0.00 0.00 0.00 98 1008.5
20260507032703 54 338 0.9 1.7 0.00 0.00 0.00 98 1008.5
20260507032404 54 335 1.7 1.7 0.00 0.00 0.00 98 1008.5
20260507031504 54 346 1.7 1.7 0.00 0.00 0.00 98 1009.5
20260507031204 54 348 0.9 1.7 0.00 0.00 0.00 98 1009.5
20260507030903 54 354 1.7 1.7 0.00 0.00 0.00 98 1009.5
20260507030603 54 352 0.9 1.7 0.00 0.00 0.00 98 1009.5
20260507030304 54 341 0.9 1.7 0.00 0.00 0.00 98 1009.5
20260507025704 54 334 1.7 1.7 0.00 0.00 0.00 98 1009.5
20260507025403 54 337 1.7 1.7 0.00 0.00 0.00 98 1009.5
20260507025104 55 343 1.7 1.7 0.00 0.00 0.00 98 1009.5
20260507024803 55 342 0.9 1.7 0.00 0.00 0.00 98 1009.5